Regional Weather Roundup
Issued by NWS

Home | Current Version | Previous Version | Text Only | Print | Product List | Glossary Off
Versions: 1 2 3 4 5 6 7 8 9 10 11 12 13 14 15 16 17 18 19 20 21 22 23 24 25 26 27 28 29 30 31 32 33 34 35 36 37 38 39 40 41 42 43 44 45 46

000
ASUS45 KSLC 290410
RWRUT

UTAH REGIONAL WEATHER ROUNDUP
NATIONAL WEATHER SERVICE SALT LAKE CITY UT
1000 PM MDT FRI AUG 28 2015

UTZ001>011-023>025-290500-

NORTHERN UTAH

CITY           SKY/WX    TMP DP  RH WIND       PRES   REMARKS
BRIGHAM CITY   CLEAR     76  38  25 SE5       30.07R
HILL AFB       CLEAR     77  38  24 E13       30.10R
LOGAN          CLEAR     75  40  28 S5        30.09R
OGDEN          CLEAR     75  40  28 S8        30.07R
PROVO AIRPORT  CLEAR     70  45  40 CALM      30.10R
SALT LAKE CITY PTCLDY    80  39  23 S8        30.05R
VERNAL         PTCLDY    70  43  37 W7        30.20R
WENDOVER       PTCLDY    81  39  22 W3        30.04R
HEBER CITY     CLEAR     61  43  51 CALM      30.21R
WEST JORDAN    CLEAR     73  37  27 SW5       30.10R

$$

UTZ012>022-026-027-290500-

SOUTHERN/CENTRAL UTAH

CITY           SKY/WX    TMP DP  RH WIND       PRES   REMARKS
BLANDING       CLEAR     68  27  21 N8        30.29R
BRYCE CANYON   CLEAR     58  48  69 VRB5      30.38R
CEDAR CITY     CLEAR     72  43  35 CALM      30.19R
DELTA          CLEAR     75  30  19 E6        30.10R
HANKSVILLE     CLEAR     72  41  33 CALM      30.13R
MILFORD        CLEAR     76  42  29 S7        30.12R
MOAB/CYNLANDS  CLEAR     75  43  31 CALM      30.11R
PRICE          CLEAR     69  36  29 N10       30.23R
ST GEORGE      CLEAR     90  43  19 E9        29.96R
KANAB          CLEAR     70  59  68 CALM      30.20R

$$

REGIONAL REPORTS     COLORADO/ARIZONA

CITY           SKY/WX    TMP DP  RH WIND       PRES   REMARKS
CRAIG, CO      CLEAR     60  46  59 CALM      30.31R
GRAND JUNCTION CLEAR     72  42  34 E6        30.16R
RIFLE          CLEAR     64  49  57 SE5       30.24R
MONTROSE       CLEAR     66  47  50 SE8       30.27R
CORTEZ         CLEAR     65  41  41 E8        30.22R
PAGE, AZ       CLEAR     83  41  22 SE5       30.09R
GRAND CANYON   CLEAR     58  43  57 CALM      30.31R
KINGMAN        CLEAR     82  50  32 S8        30.01R
FLAGSTAFF      CLEAR     59  53  80 CALM      30.34R

$$

REGIONAL REPORTS    NEVADA/IDAHO/WYOMING

CITY           SKY/WX    TMP DP  RH WIND       PRES   REMARKS
LAS VEGAS, NV  MOCLDY    99  51  19 S5        29.84R HX  96
ELY            PTCLDY    64  43  46 S9        30.21R
ELKO           MOCLDY    73  47  39 E7        30.09R
POCATELLO, ID  CLEAR     72  41  32 CALM      30.05S
EVANSTON, WY   PTCLDY    67  34  29 E6        30.32R
ROCK SPRINGS   CLEAR     67  29  24 SE8       30.30R
KEMMERER       CLEAR     63  32  31 N9        30.34R

$$


USA.gov is the U.S. government's official web portal to all federal, state and local government web resources and services.